Date String (YYYY-MM-DD hh:mm:ss) UTC,Instrument flags,Ambient pressure (hPa),Sample flow (lpm),Bypass flow (lpm),Sample temperature (°C),Ambient temperature (°C),ASC tube jacket temperature (°C),LED temperature (°C),Box temperature (°C),Sample RH (%),Span deviation,Mass concentration (μg/m³),Mass concentration (μg/m³),Mass concentration (μg/m³)
DateTimeUTC,F1_M11,P_M11,Q1_M11,Q2_M11,T1_M11,T2_M11,T3_M11,T4_M11,T5_M11,U1_M11,ZSPAN_M11,X0_M11,X2_M11,X1_M11
2021-09-30 02:00:00,,0829.9,5.00,0.00,30.5,29.6,00.0,39.6,32.2,19.6,0000.0,0007.10,0003.23,0002.74
2021-09-30 02:01:00,,0829.9,5.02,0.00,30.5,29.6,00.0,39.6,32.1,19.7,0000.0,0007.07,0003.21,0002.71
2021-09-30 02:02:00,,0830.0,4.99,0.00,30.5,29.6,00.0,39.6,32.2,19.7,0000.0,0006.94,0003.21,0002.69
2021-09-30 02:03:00,,0830.0,4.99,0.00,30.5,29.6,00.0,39.6,32.2,19.6,0000.0,0006.72,0003.19,0002.67
2021-09-30 02:04:00,,0830.1,5.01,0.00,30.5,29.5,00.0,39.6,32.2,19.5,0000.0,0006.57,0003.23,0002.64
2021-09-30 02:05:00,,0830.1,5.00,0.00,30.5,29.6,00.0,39.6,32.2,19.4,0000.0,0005.78,0003.25,0002.63
2021-09-30 02:06:00,,0830.1,5.01,0.00,30.5,29.5,00.0,39.6,32.1,19.4,0000.0,0005.19,0003.28,0002.64
2021-09-30 02:07:00,,0830.1,4.99,0.00,30.5,29.5,00.0,39.6,32.2,19.4,0000.0,0005.36,0003.30,0002.64
2021-09-30 02:08:00,,0830.1,5.00,0.00,30.5,29.5,00.0,39.6,32.2,19.3,0000.0,0005.93,0003.30,0002.64
2021-09-30 02:09:00,,0830.1,5.00,0.00,30.4,29.5,00.0,39.6,32.1,19.4,0000.0,0006.08,0003.28,0002.64
2021-09-30 02:10:00,,0830.1,4.99,0.00,30.4,29.5,00.0,39.6,32.1,19.3,0000.0,0006.13,0003.30,0002.64
2021-09-30 02:11:00,,0830.1,5.00,0.00,30.5,29.5,00.0,39.6,32.1,19.2,0000.0,0006.45,0003.31,0002.66
2021-09-30 02:12:00,,0830.1,5.00,0.00,30.5,29.5,00.0,39.6,32.2,19.2,0000.0,0006.73,0003.30,0002.67
2021-09-30 02:13:00,,0830.1,5.00,0.00,30.5,29.5,00.0,39.6,32.2,19.2,0000.0,0006.57,0003.26,0002.67
2021-09-30 02:14:00,,0830.1,5.02,0.00,30.4,29.6,00.0,39.6,32.2,19.0,0000.0,0006.68,0003.27,0002.68
2021-09-30 02:15:00,,0830.1,5.00,0.00,30.5,29.6,00.0,39.6,32.1,19.1,0000.0,0006.79,0003.24,0002.69
2021-09-30 02:16:00,,0830.1,5.01,0.00,30.5,29.6,00.0,39.6,32.1,19.1,0000.0,0006.76,0003.24,0002.71
2021-09-30 02:17:00,,0830.1,5.00,0.00,30.5,29.6,00.0,39.6,32.2,19.1,0000.0,0006.89,0003.25,0002.73
2021-09-30 02:18:00,,0830.1,5.00,0.00,30.4,29.6,00.0,39.6,32.1,19.2,0000.0,0007.53,0003.25,0002.76
2021-09-30 02:19:00,,0830.1,5.00,0.00,30.4,29.6,00.0,39.6,32.1,19.5,0000.0,0007.60,0003.25,0002.78
2021-09-30 02:20:00,,0830.2,5.00,0.00,30.4,29.6,00.0,39.6,32.1,19.6,0000.0,0007.53,0003.27,0002.80
2021-09-30 02:21:00,,0830.3,4.99,0.00,30.4,29.6,00.0,39.6,32.1,19.4,0000.0,0007.60,0003.28,0002.81
2021-09-30 02:22:00,,0830.2,5.01,0.00,30.4,29.6,00.0,39.6,32.1,19.2,0000.0,0007.43,0003.29,0002.84
2021-09-30 02:23:00,,0830.3,5.00,0.00,30.4,29.5,00.0,39.6,32.1,19.2,0000.0,0007.22,0003.32,0002.86
2021-09-30 02:24:00,,0830.4,5.01,0.00,30.4,29.5,00.0,39.6,32.1,19.3,0000.0,0007.60,0003.36,0002.89
2021-09-30 02:25:00,,0830.5,5.01,0.00,30.4,29.5,00.0,39.6,32.1,19.1,0000.0,0008.22,0003.38,0002.92
2021-09-30 02:26:00,,0830.5,5.00,0.00,30.4,29.5,00.0,39.6,32.1,19.0,0000.0,0008.17,0003.40,0002.93
2021-09-30 02:27:00,,0830.4,5.00,0.00,30.4,29.5,00.0,39.5,32.1,18.9,0000.0,0008.23,0003.43,0002.95
2021-09-30 02:28:00,,0830.4,4.99,0.00,30.4,29.5,00.0,39.5,32.1,19.0,0000.0,0008.16,0003.45,0002.97
2021-09-30 02:29:00,,0830.4,5.00,0.00,30.4,29.5,00.0,39.5,32.1,19.1,0000.0,0007.59,0003.45,0003.00
2021-09-30 02:30:00,,0830.4,5.01,0.00,30.4,29.5,00.0,39.5,32.1,19.1,0000.0,0007.81,0003.48,0003.02
2021-09-30 02:31:00,,0830.4,4.99,0.00,30.4,29.5,00.0,39.5,32.0,18.8,0000.0,0007.78,0003.49,0003.03
2021-09-30 02:32:00,,0830.4,5.00,0.00,30.3,29.4,00.0,39.5,32.0,18.5,0000.0,0007.73,0003.49,0003.05
2021-09-30 02:33:00,,0830.5,5.00,0.00,30.3,29.4,00.0,39.5,32.0,18.8,0000.0,0007.67,0003.48,0003.05
2021-09-30 02:34:00,,0830.5,4.99,0.00,30.3,29.4,00.0,39.5,32.0,18.9,0000.0,0007.75,0003.50,0003.04
2021-09-30 02:35:00,,0830.5,5.01,0.00,30.3,29.4,00.0,39.5,32.0,18.9,0000.0,0007.37,0003.50,0003.01
2021-09-30 02:36:00,,0830.5,5.00,0.00,30.3,29.4,00.0,39.5,32.0,18.7,0000.0,0006.51,0003.48,0002.99
2021-09-30 02:37:00,,0830.5,5.01,0.00,30.3,29.4,00.0,39.5,32.0,18.7,0000.0,0006.86,0003.49,0002.99
2021-09-30 02:38:00,,0830.6,4.99,0.00,30.3,29.4,00.0,39.5,32.0,18.9,0000.0,0006.83,0003.46,0002.97
2021-09-30 02:39:00,,0830.6,5.01,0.00,30.3,29.4,00.0,39.5,32.0,19.0,0000.0,0006.87,0003.44,0002.95
2021-09-30 02:40:00,,0830.5,5.01,0.00,30.3,29.4,00.0,39.4,32.0,18.6,0000.0,0007.03,0003.47,0002.93
2021-09-30 02:41:00,,0830.6,4.99,0.00,30.3,29.4,00.0,39.4,32.0,18.2,0000.0,0006.12,0003.46,0002.93
2021-09-30 02:42:00,,0830.6,4.99,0.00,30.3,29.4,00.0,39.4,32.0,18.0,0000.0,0006.16,0003.44,0002.94
2021-09-30 02:43:00,,0830.6,5.01,0.00,30.3,29.4,00.0,39.4,32.0,18.2,0000.0,0007.48,0003.42,0002.93
2021-09-30 02:44:00,,0830.6,5.01,0.00,30.3,29.4,00.0,39.4,32.0,18.4,0000.0,0007.70,0003.43,0002.92
2021-09-30 02:45:00,,0830.6,4.98,0.00,30.3,29.4,00.0,39.4,32.0,18.5,0000.0,0008.05,0003.42,0002.92
2021-09-30 02:46:00,,0830.6,5.01,0.00,30.3,29.4,00.0,39.4,32.0,18.5,0000.0,0008.03,0003.39,0002.94
2021-09-30 02:47:00,,0830.6,5.00,0.00,30.3,29.4,00.0,39.4,32.0,18.4,0000.0,0008.17,0003.39,0002.94
2021-09-30 02:48:00,,0830.6,4.99,0.00,30.3,29.4,00.0,39.4,32.0,18.4,0000.0,0008.13,0003.35,0002.91
2021-09-30 02:49:00,,0830.6,5.02,0.00,30.3,29.4,00.0,39.4,32.0,18.4,0000.0,0008.01,0003.34,0002.89
2021-09-30 02:50:00,,0830.6,5.00,0.00,30.3,29.4,00.0,39.4,32.0,18.4,0000.0,0007.99,0003.35,0002.88
2021-09-30 02:51:00,,0830.5,4.99,0.00,30.3,29.4,00.0,39.4,32.0,18.3,0000.0,0007.92,0003.32,0002.87
2021-09-30 02:52:00,,0830.5,5.00,0.00,30.3,29.4,00.0,39.4,32.0,18.2,0000.0,0007.80,0003.28,0002.84
2021-09-30 02:53:00,,0830.6,5.00,0.00,30.3,29.4,00.0,39.4,32.0,18.4,0000.0,0008.14,0003.28,0002.83
2021-09-30 02:54:00,,0830.6,4.99,0.00,30.3,29.4,00.0,39.4,32.0,18.3,0000.0,0007.72,0003.31,0002.82
2021-09-30 02:55:00,,0830.6,5.00,0.00,30.3,29.4,00.0,39.4,32.0,18.5,0000.0,0007.41,0003.31,0002.84
2021-09-30 02:56:00,,0830.6,4.99,0.00,30.2,29.4,00.0,39.4,32.0,18.5,0000.0,0007.30,0003.33,0002.84
2021-09-30 02:57:00,,0830.6,5.00,0.00,30.3,29.4,00.0,39.4,32.0,18.5,0000.0,0007.81,0003.35,0002.84
2021-09-30 02:58:00,,0830.6,5.01,0.00,30.3,29.4,00.0,39.4,32.0,18.5,0000.0,0007.80,0003.37,0002.85
2021-09-30 02:59:00,,0830.6,5.01,0.00,30.3,29.4,00.0,39.4,32.0,18.4,0000.0,0007.81,0003.39,0002.88
